DLH8NK EDDF-EDDM

Flight info

Callsign DLH8NK
Flight time 0h 31m
Altitude 19000
Route CINDY8S/18 CINDY Z74 HAREM T104 ROKIL
Aircraft A321/M-SDE3FGHIRWY/LB1

Departure

Time 2026-05-04 16:13
Airport Frankfurt Main Airport (EDDF)

Arrival

Time 2026-05-04 16:44
Airport Munich Airport (EDDM)
Time Latitude Longitude Altitude Speed Heading
2026-05-04 15:23 50.04688 8.56692 371 ft 0 kts 114°
2026-05-04 16:00 50.04691 8.56679 371 ft 2 kts 114°
2026-05-04 16:00 50.04697 8.56658 371 ft 2 kts 114°
2026-05-04 16:00 50.04699 8.56652 371 ft 0 kts 115°
2026-05-04 16:01 50.04702 8.56640 371 ft 2 kts 115°
2026-05-04 16:01 50.04709 8.56618 371 ft 2 kts 118°
2026-05-04 16:01 50.04720 8.56606 371 ft 2 kts 179°
2026-05-04 16:02 50.04734 8.56613 371 ft 1 kts 226°
2026-05-04 16:02 50.04738 8.56621 371 ft 1 kts 236°
2026-05-04 16:02 50.04739 8.56624 371 ft 0 kts 234°
2026-05-04 16:04 50.04675 8.56474 371 ft 10 kts 248°
2026-05-04 16:04 50.04649 8.56365 371 ft 10 kts 250°
2026-05-04 16:05 50.04624 8.56254 371 ft 10 kts 251°
2026-05-04 16:05 50.04596 8.56141 371 ft 11 kts 249°
2026-05-04 16:05 50.04518 8.55941 371 ft 10 kts 194°
2026-05-04 16:06 50.04443 8.55917 371 ft 11 kts 193°
2026-05-04 16:06 50.04244 8.55937 371 ft 11 kts 227°
2026-05-04 16:07 50.04204 8.55790 371 ft 18 kts 250°
2026-05-04 16:07 50.04050 8.55147 371 ft 20 kts 250°
2026-05-04 16:08 50.04001 8.54940 371 ft 20 kts 250°
2026-05-04 16:08 50.03859 8.54367 371 ft 17 kts 240°
2026-05-04 16:09 50.03756 8.54035 371 ft 16 kts 250°
2026-05-04 16:09 50.03691 8.53764 371 ft 12 kts 250°
2026-05-04 16:10 50.03638 8.53552 371 ft 12 kts 249°
2026-05-04 16:11 50.03529 8.53098 371 ft 19 kts 250°
2026-05-04 16:11 50.03475 8.52881 371 ft 21 kts 246°
2026-05-04 16:12 50.03291 8.52589 371 ft 23 kts 181°
2026-05-04 16:12 50.00765 8.52612 678 ft 181 kts 182°
2026-05-04 16:13 49.98204 8.52585 1846 ft 189 kts 181°
2026-05-04 16:13 49.95761 8.53820 2646 ft 205 kts 127°
2026-05-04 16:14 49.94534 8.58146 3264 ft 236 kts 107°
2026-05-04 16:14 49.93955 8.63535 3990 ft 271 kts 95°
2026-05-04 16:15 49.92103 8.71550 6074 ft 276 kts 144°
2026-05-04 16:16 49.89021 8.75043 7498 ft 280 kts 137°
2026-05-04 16:16 49.85808 8.82717 9502 ft 288 kts 120°
2026-05-04 16:17 49.83856 8.88203 10572 ft 300 kts 121°
2026-05-04 16:18 49.80547 8.97296 11369 ft 345 kts 122°
2026-05-04 16:18 49.79356 9.00559 11682 ft 356 kts 122°
2026-05-04 16:19 49.76007 9.11001 13415 ft 368 kts 111°
2026-05-04 16:19 49.74350 9.18505 14443 ft 372 kts 120°
2026-05-04 16:20 49.69550 9.27941 15951 ft 378 kts 134°
2026-05-04 16:20 49.66054 9.34037 16906 ft 384 kts 134°
2026-05-04 16:21 49.60724 9.43411 18276 ft 393 kts 133°
2026-05-04 16:22 49.57117 9.49762 18951 ft 399 kts 134°
2026-05-04 16:22 49.51645 9.59360 18958 ft 398 kts 133°
2026-05-04 16:23 49.46147 9.68962 18959 ft 398 kts 134°
2026-05-04 16:24 49.38832 9.81676 18959 ft 398 kts 134°
2026-05-04 16:25 49.35169 9.88018 18959 ft 398 kts 134°
2026-05-04 16:26 49.27803 10.00703 18955 ft 399 kts 134°
2026-05-04 16:26 49.22268 10.10190 18952 ft 400 kts 134°
2026-05-04 16:27 49.18559 10.16533 18951 ft 400 kts 134°
2026-05-04 16:28 49.12996 10.25974 18952 ft 400 kts 135°
2026-05-04 16:28 49.07247 10.35199 18955 ft 400 kts 136°
2026-05-04 16:29 48.99559 10.47508 18956 ft 401 kts 136°
2026-05-04 16:30 48.93795 10.56691 18956 ft 401 kts 136°
2026-05-04 16:31 48.89933 10.62836 18956 ft 401 kts 136°
2026-05-04 16:31 48.84050 10.71919 17059 ft 409 kts 141°
2026-05-04 16:32 48.77525 10.80154 15163 ft 404 kts 143°
2026-05-04 16:33 48.73217 10.85517 13961 ft 400 kts 143°
2026-05-04 16:33 48.69061 10.90694 12787 ft 395 kts 143°
2026-05-04 16:34 48.64875 10.95905 11626 ft 382 kts 143°
2026-05-04 16:34 48.62871 10.98386 11181 ft 358 kts 143°
2026-05-04 16:35 48.57201 11.05230 9831 ft 346 kts 143°
2026-05-04 16:35 48.51660 11.11593 8544 ft 326 kts 143°
2026-05-04 16:36 48.49857 11.13617 8170 ft 323 kts 143°
2026-05-04 16:36 48.46270 11.17619 7417 ft 318 kts 143°
2026-05-04 16:37 48.42773 11.21478 6744 ft 303 kts 143°
2026-05-04 16:37 48.41083 11.23333 6483 ft 298 kts 143°
2026-05-04 16:37 48.38397 11.27744 5983 ft 282 kts 116°
2026-05-04 16:38 48.36799 11.32856 5580 ft 261 kts 113°
2026-05-04 16:39 48.34896 11.40410 4845 ft 256 kts 101°
2026-05-04 16:39 48.34315 11.45593 4426 ft 245 kts 94°
2026-05-04 16:40 48.34283 11.50528 4144 ft 229 kts 84°
2026-05-04 16:40 48.34674 11.55194 3716 ft 223 kts 80°
2026-05-04 16:41 48.35034 11.59590 3570 ft 187 kts 83°
2026-05-04 16:41 48.35379 11.64796 2938 ft 160 kts 82°
2026-05-04 16:42 48.35748 11.69739 2365 ft 158 kts 82°
2026-05-04 16:43 48.35989 11.73045 1997 ft 158 kts 83°
2026-05-04 16:43 48.36241 11.76312 1570 ft 156 kts 82°
2026-05-04 16:43 48.36366 11.77899 1471 ft 139 kts 83°
2026-05-04 16:44 48.36364 11.79557 1465 ft 15 kts 114°
2026-05-04 16:45 48.36317 11.79722 1465 ft 3 kts 113°
2026-05-04 16:46 48.36246 11.79782 1465 ft 9 kts 227°
2026-05-04 16:46 48.36224 11.79603 1466 ft 7 kts 263°
2026-05-04 16:47 48.36194 11.79478 1467 ft 5 kts 214°
2026-05-04 16:47 48.36099 11.79482 1467 ft 8 kts 172°
2026-05-04 16:48 48.35881 11.79459 1469 ft 11 kts 200°
2026-05-04 16:48 48.35810 11.79461 1470 ft 9 kts 175°
2026-05-04 16:49 48.35743 11.79472 1471 ft 0 kts 173°
2026-05-04 16:49 48.35605 11.79496 1472 ft 16 kts 173°
2026-05-04 16:50 48.35409 11.79529 1473 ft 12 kts 174°
2026-05-04 16:50 48.35252 11.79556 1474 ft 10 kts 174°
2026-05-04 16:51 48.35122 11.79579 1474 ft 8 kts 173°
2026-05-04 16:51 48.35064 11.79588 1474 ft 7 kts 178°
2026-05-04 16:51 48.35023 11.79486 1475 ft 4 kts 264°
2026-05-04 16:52 48.35018 11.79413 1475 ft 4 kts 263°
2026-05-04 16:52 48.35015 11.79370 1476 ft 0 kts 264°